Location: Proctor
(47.8934°N, 114.3048°W)
Time: 20:54:48
(UTC+00:00)

AO-92 - Pass Details

Date: 09 July 2022
Orbit: 469 x 481 km, 97.4° (Epoch: 13 August)

Event Time Altitude Azimuth Distance (km) Brightness Sun altitude
Exits shadow 05:09:17 19° 136° (SE) 1,215 ? -11.8°
Maximum altitude 05:11:33 44° 72° (ENE) 682 ? -12.0°
Drops below altitude 10° 05:14:59 10° 360° (N) 1,675 ? -12.4°
Sets 05:17:07 0° 353° (N) 2,562 ? -12.6°
